Location: *
(46.3500°N, 10.9000°E)
Time: 07:54:27
(UTC+00:00)

Cosmos 921 Rocket - Visible Passes

Search period start: 11 August 2020 00:00
Search period end: 21 August 2020 00:00
Orbit: 572 x 631 km, 75.8° (Epoch: 10 August)

Date Brightness Start Highest point End Pass type
(mag) Time Alt. Az. Time Alt. Az. Time Alt. Az.
11 Aug 2.9 20:27:51 10° NNW 20:32:05 81° WSW 20:33:45 35° S visible
12 Aug 4.6 19:02:22 10° NNE 19:05:25 19° ENE 19:08:26 10° ESE visible
12 Aug 3.7 20:39:56 10° NNW 20:43:58 45° WSW 20:45:43 28° SSW visible
13 Aug 4.0 19:13:51 10° N 19:17:34 30° ENE 19:20:55 12° ESE visible
13 Aug 4.7 20:52:14 10° NW 20:55:46 26° W 20:57:43 19° SW visible
14 Aug 3.3 19:25:33 10° N 19:29:39 49° ENE 19:32:58 15° SE visible
14 Aug 5.4 21:04:57 10° WNW 21:07:29 16° W 21:09:46 11° SW visible
15 Aug 2.9 19:37:24 10° NNW 19:41:38 86° ENE 19:45:04 15° SSE visible
16 Aug 3.5 19:49:26 10° NNW 19:53:32 54° WSW 19:57:13 12° S visible
17 Aug 4.6 20:01:40 10° NW 20:05:22 31° W 20:09:02 10° SSW visible
18 Aug 5.4 20:14:13 10° NW 20:17:07 18° W 20:20:00 10° SW visible
19 Aug 2.9 18:46:58 10° NNW 18:51:11 74° ENE 18:55:21 10° SSE visible
19 Aug 5.9 20:27:52 10° W 20:28:47 11° W 20:29:43 10° WSW visible
20 Aug 3.4 18:58:57 10° NNW 19:03:07 64° WSW 19:07:14 10° S visible
